Change the Weather History Date:

Thursday, October 9, 2014

  Actual Average Record
Temperature  
Mean Temperature 54 °F -  
Max Temperature 63 °F 67 °F 89 °F (2010)
Min Temperature 44 °F 42 °F 28 °F (1987)
Degree Days  
Heating Degree Days 12    
Growing Degree Days 4 (Base 50)    
Moisture  
Dew Point 44 °F    
Average Humidity 71    
Maximum Humidity 94    
Minimum Humidity 44    
Precipitation  
Precipitation 0.02 in - - ()
Sea Level Pressure  
Sea Level Pressure 30.10 in    
Wind  
Wind Speed 6 mph (West)    
Max Wind Speed 12 mph    
Max Gust Speed -    
Visibility 10 miles    
Events Rain    
Averages and records for this station are not official NWS values.
T = Trace of Precipitation, MM = Missing Value Source: NWS Daily Summary

Daily Weather History Graph

Daily Weather History Graph

Search for Another Location

Airport or City:

Trip Planner

Search our weather history database for the weather conditions in past years. The results will help you decide how hot, cold, wet, or windy it might be!

Date:

Astronomy

Oct. 09, 2014 Rise Set
Actual Time 6:56 AM CDT 6:20 PM CDT
Civil Twilight 6:28 AM CDT 6:47 PM CDT
Nautical Twilight 5:57 AM CDT 7:19 PM CDT
Astronomical Twilight 5:25 AM CDT 7:51 PM CDT
Moon 7:15 PM CDT (10/9) 8:11 AM CDT (10/9)
Length of Visible Light 12h 18m
Length of Day
11h 23m
Full, 98% of the Moon is Illuminated
Oct 9
Full
Oct 15
Last Quarter
Oct 23
New
Oct 30
First Quarter
Nov 6
Full

Hourly Weather History & Observations

Time (CDT) Temp. Windchill Dew Point Humidity Pressure Visibility Wind Dir Wind Speed Gust Speed Precip Events Conditions
12:15 AM 53.1 °F - 42.1 °F 66% 30.04 in 10.0 mi SW 5.8 mph - N/A   Mostly Cloudy
12:35 AM 52.9 °F - 43.5 °F 71% 30.06 in 10.0 mi WSW 10.4 mph - N/A Rain Light Rain
12:55 AM 52.9 °F - 43.7 °F 71% 30.07 in 10.0 mi SW 8.1 mph - N/A   Overcast
1:15 AM 53.8 °F - 43.3 °F 68% 30.07 in 10.0 mi SW 8.1 mph - N/A   Overcast
1:35 AM 54.5 °F - 43.0 °F 65% 30.07 in 10.0 mi SW 8.1 mph - N/A   Overcast
1:55 AM 55.4 °F - 42.4 °F 62% 30.07 in 10.0 mi WSW 6.9 mph - N/A   Overcast
2:15 AM 55.4 °F - 42.8 °F 63% 30.06 in 10.0 mi WSW 5.8 mph - N/A   Light Drizzle
2:35 AM 54.1 °F - 44.4 °F 70% 30.07 in 10.0 mi WSW 5.8 mph - N/A Rain Light Rain
2:55 AM 52.2 °F - 45.5 °F 78% 30.05 in 10.0 mi SSW 8.1 mph - N/A   Mostly Cloudy
3:15 AM 54.1 °F - 43.9 °F 68% 30.07 in 10.0 mi West 6.9 mph - N/A   Scattered Clouds
3:35 AM 54.0 °F - 44.2 °F 70% 30.07 in 10.0 mi West 5.8 mph - N/A   Scattered Clouds
3:55 AM 53.1 °F - 44.6 °F 73% 30.07 in 10.0 mi West 6.9 mph - N/A   Scattered Clouds
4:15 AM 53.1 °F - 45.9 °F 77% 30.07 in 10.0 mi WSW 11.5 mph - N/A Rain Light Rain
4:35 AM 52.7 °F - 47.3 °F 82% 30.06 in 10.0 mi WSW 8.1 mph - N/A   Overcast
4:55 AM 52.2 °F - 47.7 °F 85% 30.06 in 10.0 mi WSW 5.8 mph - N/A   Light Drizzle
5:15 AM 51.8 °F - 47.8 °F 86% 30.05 in 10.0 mi WNW 3.5 mph - N/A Rain Light Rain
5:35 AM 51.6 °F - 48.2 °F 88% 30.08 in 10.0 mi West 5.8 mph - N/A Rain Light Rain
5:55 AM 51.3 °F - 48.6 °F 90% 30.09 in 10.0 mi WSW 8.1 mph - N/A Rain Light Rain
6:15 AM 50.9 °F - 48.7 °F 92% 30.09 in 10.0 mi West 9.2 mph - 0.02 in Rain Light Rain
6:35 AM 50.9 °F - 49.1 °F 94% 30.10 in 10.0 mi West 8.1 mph - 0.02 in   Mostly Cloudy
6:55 AM 50.9 °F - 49.1 °F 94% 30.10 in 10.0 mi West 5.8 mph - 0.02 in   Overcast
7:15 AM 50.9 °F - 49.1 °F 94% 30.11 in 10.0 mi West 6.9 mph - N/A Rain Light Rain
7:35 AM 50.7 °F - 49.1 °F 94% 30.12 in 10.0 mi West 4.6 mph - N/A Rain Light Rain
7:55 AM 50.9 °F - 49.3 °F 94% 30.13 in 10.0 mi West 5.8 mph - N/A   Overcast
8:15 AM 51.1 °F - 49.3 °F 94% 30.15 in 10.0 mi West 8.1 mph - N/A   Overcast
8:35 AM 51.3 °F - 49.5 °F 94% 30.15 in 10.0 mi West 6.9 mph - N/A   Overcast
8:55 AM 51.8 °F - 49.8 °F 93% 30.15 in 10.0 mi West 6.9 mph - N/A Rain Light Rain
9:15 AM 51.8 °F - 50.0 °F 94% 30.15 in 10.0 mi West 6.9 mph - N/A   Light Drizzle
9:35 AM 51.8 °F - 49.6 °F 92% 30.15 in 10.0 mi West 5.8 mph - N/A   Light Drizzle
9:55 AM 52.0 °F - 49.5 °F 91% 30.15 in 10.0 mi West 4.6 mph - N/A   Light Drizzle
10:15 AM 52.0 °F - 49.8 °F 92% 30.14 in 10.0 mi West 4.6 mph - N/A   Overcast
11:34 AM 53.6 °F - 48.2 °F 82% 30.13 in - North 3.5 mph - N/A   Unknown
11:35 AM 53.8 °F - 48.4 °F 82% 30.13 in - Calm Calm - N/A   Unknown
11:55 AM 55.6 °F - 47.1 °F 73% 30.13 in 10.0 mi Calm Calm - N/A   Overcast
12:15 PM 56.3 °F - 44.8 °F 65% 30.13 in 10.0 mi Calm Calm - N/A   Overcast
12:35 PM 59.0 °F - 44.6 °F 59% 30.12 in 10.0 mi Calm Calm - N/A   Mostly Cloudy
12:55 PM 57.9 °F - 39.9 °F 51% 30.12 in 10.0 mi ENE 3.5 mph - N/A   Scattered Clouds
1:15 PM 59.4 °F - 41.4 °F 51% 30.11 in 10.0 mi WNW 4.6 mph - N/A   Clear
1:30 PM 60.4 °F - 40.6 °F 48% 30.10 in 10.0 mi Calm Calm - N/A   Clear
1:55 PM 61.0 °F - 39.4 °F 45% 30.10 in 10.0 mi WNW 4.6 mph - N/A   Mostly Cloudy
2:15 PM 60.8 °F - 38.8 °F 44% 30.10 in 10.0 mi West 3.5 mph - N/A   Scattered Clouds
2:35 PM 62.6 °F - 41.0 °F 45% 30.10 in 10.0 mi Calm Calm - N/A   Clear
2:55 PM 62.1 °F - 41.2 °F 46% 30.10 in 10.0 mi Calm Calm - N/A   Clear
3:15 PM 63.5 °F - 42.1 °F 46% 30.09 in 10.0 mi Calm Calm - N/A   Clear
3:35 PM 62.8 °F - 41.4 °F 45% 30.09 in 10.0 mi SW 4.6 mph - N/A   Clear
3:55 PM 62.6 °F - 40.3 °F 44% 30.08 in 10.0 mi Calm Calm - N/A   Clear
4:15 PM 61.7 °F - 44.2 °F 53% 30.08 in 10.0 mi SW 4.6 mph - N/A   Clear
4:35 PM 62.8 °F - 42.8 °F 48% 30.07 in 10.0 mi SW 5.8 mph - N/A   Clear
4:55 PM 62.4 °F - 43.9 °F 51% 30.07 in 10.0 mi SW 6.9 mph - N/A   Scattered Clouds
5:15 PM 62.1 °F - 42.4 °F 49% 30.08 in 10.0 mi SW 5.8 mph - N/A   Clear
5:35 PM 60.8 °F - 42.4 °F 51% 30.07 in 10.0 mi West 4.6 mph - N/A   Clear
5:55 PM 59.4 °F - 43.3 °F 55% 30.08 in 10.0 mi WSW 3.5 mph - N/A   Scattered Clouds
6:15 PM 57.2 °F - 42.6 °F 58% 30.08 in 10.0 mi SW 3.5 mph - N/A   Scattered Clouds
6:35 PM 56.3 °F - 44.2 °F 64% 30.09 in 10.0 mi SW 3.5 mph - N/A   Clear
6:55 PM 53.6 °F - 46.4 °F 77% 30.09 in 10.0 mi Calm Calm - N/A   Clear
7:15 PM 54.7 °F - 43.0 °F 65% 30.09 in 10.0 mi North 4.6 mph - N/A   Scattered Clouds
7:35 PM 53.1 °F - 42.8 °F 68% 30.10 in 10.0 mi NNE 4.6 mph - N/A   Clear
7:55 PM 51.8 °F - 43.0 °F 72% 30.10 in 10.0 mi NNE 3.5 mph - N/A   Clear
8:15 PM 50.5 °F - 42.4 °F 74% 30.11 in 10.0 mi North 4.6 mph - N/A   Clear
8:35 PM 50.0 °F - 41.0 °F 71% 30.11 in 10.0 mi ENE 3.5 mph - N/A   Clear
8:55 PM 47.8 °F - 41.2 °F 78% 30.12 in 10.0 mi ENE 5.8 mph - N/A   Clear
9:15 PM 48.2 °F - 41.2 °F 77% 30.12 in 10.0 mi NE 5.8 mph - N/A   Clear
9:35 PM 48.4 °F - 41.0 °F 76% 30.11 in 10.0 mi NE 6.9 mph - N/A   Scattered Clouds
9:55 PM 47.8 °F - 39.9 °F 74% 30.12 in 10.0 mi NE 5.8 mph - N/A   Clear
10:15 PM 47.3 °F - 39.7 °F 75% 30.12 in 10.0 mi ENE 6.9 mph - N/A   Clear
10:35 PM 48.2 °F - 39.2 °F 71% 30.12 in 10.0 mi NE 5.8 mph - N/A   Clear
10:55 PM 45.7 °F 42.7 °F 39.2 °F 78% 30.12 in 10.0 mi ENE 5.8 mph - N/A   Clear
11:15 PM 45.1 °F 42.0 °F 39.0 °F 79% 30.13 in 10.0 mi ENE 5.8 mph - N/A   Clear
11:35 PM 44.6 °F 43.1 °F 39.2 °F 81% 30.13 in 10.0 mi East 3.5 mph - N/A   Clear
11:55 PM 45.1 °F 43.7 °F 39.4 °F 80% 30.12 in 10.0 mi ENE 3.5 mph - N/A   Clear